Time,TemperatureF,DewpointF,PressureIn,WindDirection,WindDirectionDegrees,WindSpeedMPH,WindSpeedGustMPH,Humidity,HourlyPrecipIn,Conditions,Clouds,dailyrainin,SoftwareType,DateUTC
2013-09-11 00:01:00,63.0,57.5,0.00,WSW,251,4.1,8.2,82,0.00,,,0.00,WUHU216CR1000,2013-09-11 07:01:00,
2013-09-11 00:06:00,63.0,57.5,0.00,WSW,251,4.1,8.2,82,0.00,,,0.00,WUHU216CR1000,2013-09-11 07:06:00,
2013-09-11 00:11:00,63.0,57.5,0.00,WSW,251,4.1,8.2,82,0.00,,,0.00,WUHU216CR1000,2013-09-11 07:11:00,
2013-09-11 00:16:00,62.9,57.4,0.00,WSW,253,3.4,8.2,82,0.00,,,0.00,WUHU216CR1000,2013-09-11 07:16:00,
2013-09-11 00:21:00,62.9,57.4,0.00,WSW,253,3.4,8.2,82,0.00,,,0.00,WUHU216CR1000,2013-09-11 07:21:00,
2013-09-11 00:26:00,62.9,57.4,0.00,WSW,253,3.4,8.2,82,0.00,,,0.00,WUHU216CR1000,2013-09-11 07:26:00,
2013-09-11 00:31:00,63.0,57.4,0.00,West,262,2.8,8.2,82,0.00,,,0.00,WUHU216CR1000,2013-09-11 07:31:00,
2013-09-11 00:36:00,63.0,57.4,0.00,West,262,2.8,8.2,82,0.00,,,0.00,WUHU216CR1000,2013-09-11 07:36:00,
2013-09-11 00:41:00,63.0,57.4,0.00,West,262,2.8,8.2,82,0.00,,,0.00,WUHU216CR1000,2013-09-11 07:41:00,
2013-09-11 00:46:00,62.9,57.3,0.00,West,276,3.9,9.9,82,0.00,,,0.00,WUHU216CR1000,2013-09-11 07:46:00,
2013-09-11 00:51:00,62.9,57.3,0.00,West,276,3.9,9.9,82,0.00,,,0.00,WUHU216CR1000,2013-09-11 07:51:00,
2013-09-11 00:56:00,62.9,57.3,0.00,West,276,3.9,9.9,82,0.00,,,0.00,WUHU216CR1000,2013-09-11 07:56:00,
2013-09-11 01:01:00,62.9,57.4,0.00,WSW,257,4.3,9.9,82,0.00,,,0.00,WUHU216CR1000,2013-09-11 08:01:00,
2013-09-11 01:06:00,62.9,57.4,0.00,WSW,257,4.3,9.9,82,0.00,,,0.00,WUHU216CR1000,2013-09-11 08:06:00,
2013-09-11 01:12:00,62.9,57.4,0.00,WSW,257,4.3,9.9,82,0.00,,,0.00,WUHU216CR1000,2013-09-11 08:12:00,
2013-09-11 01:17:00,62.8,57.3,0.00,WSW,255,4.8,9.9,82,0.00,,,0.00,WUHU216CR1000,2013-09-11 08:17:00,
2013-09-11 01:22:00,62.8,57.3,0.00,WSW,255,4.8,9.9,82,0.00,,,0.00,WUHU216CR1000,2013-09-11 08:22:00,
2013-09-11 01:27:00,62.8,57.3,0.00,WSW,255,4.8,9.9,82,0.00,,,0.00,WUHU216CR1000,2013-09-11 08:27:00,
2013-09-11 01:32:00,62.7,57.3,0.00,West,278,4.2,9.9,82,0.00,,,0.00,WUHU216CR1000,2013-09-11 08:32:00,
2013-09-11 01:37:00,62.7,57.3,0.00,West,278,4.2,9.9,82,0.00,,,0.00,WUHU216CR1000,2013-09-11 08:37:00,
2013-09-11 01:42:00,62.7,57.3,0.00,West,278,4.2,9.9,82,0.00,,,0.00,WUHU216CR1000,2013-09-11 08:42:00,
2013-09-11 01:47:00,62.7,57.2,0.00,WNW,283,4.1,9.9,82,0.00,,,0.00,WUHU216CR1000,2013-09-11 08:47:00,
2013-09-11 01:52:00,62.7,57.2,0.00,WNW,283,4.1,9.9,82,0.00,,,0.00,WUHU216CR1000,2013-09-11 08:52:00,
2013-09-11 01:57:00,62.7,57.2,0.00,WNW,283,4.1,9.9,82,0.00,,,0.00,WUHU216CR1000,2013-09-11 08:57:00,
2013-09-11 02:02:00,62.6,57.1,0.00,West,281,4.4,9.9,82,0.00,,,0.00,WUHU216CR1000,2013-09-11 09:02:00,
2013-09-11 02:07:00,62.6,57.1,0.00,West,281,4.4,9.9,82,0.00,,,0.00,WUHU216CR1000,2013-09-11 09:07:00,
2013-09-11 02:12:00,62.6,57.1,0.00,West,281,4.4,9.9,82,0.00,,,0.00,WUHU216CR1000,2013-09-11 09:12:00,
2013-09-11 02:17:00,62.6,57.0,0.00,West,263,4.2,9.9,82,0.00,,,0.00,WUHU216CR1000,2013-09-11 09:17:00,
2013-09-11 02:22:00,62.6,57.0,0.00,West,263,4.2,8.2,82,0.00,,,0.00,WUHU216CR1000,2013-09-11 09:22:00,
2013-09-11 02:27:00,62.6,57.0,0.00,West,263,4.2,8.2,82,0.00,,,0.00,WUHU216CR1000,2013-09-11 09:27:00,
2013-09-11 02:32:00,62.7,57.0,0.00,West,259,3.2,8.2,81,0.00,,,0.00,WUHU216CR1000,2013-09-11 09:32:00,
2013-09-11 02:37:00,62.7,57.0,0.00,West,259,3.2,8.2,81,0.00,,,0.00,WUHU216CR1000,2013-09-11 09:37:00,
2013-09-11 02:42:00,62.7,57.0,0.00,West,259,3.2,8.2,81,0.00,,,0.00,WUHU216CR1000,2013-09-11 09:42:00,
2013-09-11 02:47:00,62.7,56.9,0.00,WNW,294,3.4,8.2,81,0.00,,,0.00,WUHU216CR1000,2013-09-11 09:47:00,
2013-09-11 02:52:00,62.7,56.9,0.00,WNW,294,3.4,8.2,81,0.00,,,0.00,WUHU216CR1000,2013-09-11 09:52:00,
2013-09-11 02:57:00,62.7,56.9,0.00,WNW,294,3.4,8.2,81,0.00,,,0.00,WUHU216CR1000,2013-09-11 09:57:00,
2013-09-11 03:02:00,62.5,56.9,0.00,West,265,3.7,9.9,82,0.00,,,0.00,WUHU216CR1000,2013-09-11 10:02:00,
2013-09-11 03:07:00,62.5,56.9,0.00,West,265,3.7,9.9,82,0.00,,,0.00,WUHU216CR1000,2013-09-11 10:07:00,
2013-09-11 03:12:00,62.5,56.9,0.00,West,265,3.7,9.9,82,0.00,,,0.00,WUHU216CR1000,2013-09-11 10:12:00,
2013-09-11 03:17:00,62.6,56.9,0.00,West,265,4.3,9.9,81,0.00,,,0.00,WUHU216CR1000,2013-09-11 10:17:00,
2013-09-11 03:22:00,62.6,56.9,0.00,West,265,4.3,9.9,81,0.00,,,0.00,WUHU216CR1000,2013-09-11 10:22:00,
2013-09-11 03:27:00,62.6,56.9,0.00,West,265,4.3,9.9,81,0.00,,,0.00,WUHU216CR1000,2013-09-11 10:27:00,
2013-09-11 03:32:00,62.6,56.9,0.00,WSW,250,3.5,9.9,81,0.00,,,0.00,WUHU216CR1000,2013-09-11 10:32:00,
2013-09-11 03:37:00,62.6,56.9,0.00,WSW,250,3.5,6.4,81,0.00,,,0.00,WUHU216CR1000,2013-09-11 10:37:00,
2013-09-11 03:42:00,62.6,56.9,0.00,WSW,250,3.5,6.4,81,0.00,,,0.00,WUHU216CR1000,2013-09-11 10:42:00,
2013-09-11 03:47:00,62.7,57.0,0.00,WSW,249,3.1,8.2,82,0.00,,,0.00,WUHU216CR1000,2013-09-11 10:47:00,
2013-09-11 03:52:00,62.7,57.0,0.00,WSW,249,3.1,8.2,82,0.00,,,0.00,WUHU216CR1000,2013-09-11 10:52:00,
2013-09-11 03:57:00,62.7,57.0,0.00,WSW,249,3.1,8.2,82,0.00,,,0.00,WUHU216CR1000,2013-09-11 10:57:00,
2013-09-11 04:02:00,62.7,56.9,0.00,WSW,241,3.9,8.2,81,0.00,,,0.00,WUHU216CR1000,2013-09-11 11:02:00,
2013-09-11 04:07:00,62.7,56.9,0.00,WSW,241,3.9,8.2,81,0.00,,,0.00,WUHU216CR1000,2013-09-11 11:07:00,
2013-09-11 04:12:00,62.7,56.9,0.00,WSW,241,3.9,8.2,81,0.00,,,0.00,WUHU216CR1000,2013-09-11 11:12:00,
2013-09-11 04:17:00,62.7,56.9,0.00,WSW,251,3.4,8.2,81,0.00,,,0.00,WUHU216CR1000,2013-09-11 11:17:00,
2013-09-11 04:22:00,62.7,56.9,0.00,WSW,251,3.4,6.4,81,0.00,,,0.00,WUHU216CR1000,2013-09-11 11:22:00,
2013-09-11 04:27:00,62.7,56.9,0.00,WSW,251,3.4,6.4,81,0.00,,,0.00,WUHU216CR1000,2013-09-11 11:27:00,
2013-09-11 04:32:00,62.7,56.9,0.00,WSW,241,4.0,8.2,81,0.00,,,0.00,WUHU216CR1000,2013-09-11 11:32:00,
2013-09-11 04:37:00,62.7,56.9,0.00,WSW,241,4.0,8.2,81,0.00,,,0.00,WUHU216CR1000,2013-09-11 11:37:00,
2013-09-11 04:42:00,62.7,56.9,0.00,WSW,241,4.0,8.2,81,0.00,,,0.00,WUHU216CR1000,2013-09-11 11:42:00,
2013-09-11 04:47:00,62.7,57.0,0.00,SW,226,1.1,8.2,82,0.00,,,0.00,WUHU216CR1000,2013-09-11 11:47:00,
2013-09-11 04:52:00,62.7,57.0,0.00,SW,226,1.1,4.6,82,0.00,,,0.00,WUHU216CR1000,2013-09-11 11:52:00,
2013-09-11 04:57:00,62.7,57.0,0.00,SW,226,1.1,4.6,82,0.00,,,0.00,WUHU216CR1000,2013-09-11 11:57:00,
2013-09-11 05:02:00,62.8,56.9,0.00,West,270,2.1,4.6,81,0.00,,,0.00,WUHU216CR1000,2013-09-11 12:02:00,
2013-09-11 05:07:00,62.8,56.9,0.00,West,270,2.1,4.6,81,0.00,,,0.00,WUHU216CR1000,2013-09-11 12:07:00,
2013-09-11 05:12:00,62.8,56.9,0.00,West,270,2.1,4.6,81,0.00,,,0.00,WUHU216CR1000,2013-09-11 12:12:00,
2013-09-11 05:17:00,62.7,56.8,0.00,WSW,255,3.2,6.4,81,0.00,,,0.00,WUHU216CR1000,2013-09-11 12:17:00,
2013-09-11 05:22:00,62.7,56.8,0.00,WSW,255,3.2,6.4,81,0.00,,,0.00,WUHU216CR1000,2013-09-11 12:22:00,
2013-09-11 05:27:00,62.7,56.8,0.00,WSW,255,3.2,6.4,81,0.00,,,0.00,WUHU216CR1000,2013-09-11 12:27:00,
2013-09-11 05:32:00,62.6,56.8,0.00,WSW,251,3.3,6.4,81,0.00,,,0.00,WUHU216CR1000,2013-09-11 12:32:00,
2013-09-11 05:37:00,62.6,56.8,0.00,WSW,251,3.3,6.4,81,0.00,,,0.00,WUHU216CR1000,2013-09-11 12:37:00,
2013-09-11 05:42:00,62.6,56.8,0.00,WSW,251,3.3,6.4,81,0.00,,,0.00,WUHU216CR1000,2013-09-11 12:42:00,
2013-09-11 05:47:00,62.6,56.8,0.00,West,262,3.0,8.2,81,0.00,,,0.00,WUHU216CR1000,2013-09-11 12:47:00,
2013-09-11 05:52:00,62.6,56.8,0.00,West,262,3.0,8.2,81,0.00,,,0.00,WUHU216CR1000,2013-09-11 12:52:00,
2013-09-11 05:57:00,62.6,56.8,0.00,West,262,3.0,8.2,81,0.00,,,0.00,WUHU216CR1000,2013-09-11 12:57:00,
2013-09-11 06:02:00,62.7,56.7,0.00,West,281,3.1,8.2,81,0.00,,,0.00,WUHU216CR1000,2013-09-11 13:02:00,
2013-09-11 06:07:00,62.7,56.7,0.00,West,281,3.1,8.2,81,0.00,,,0.00,WUHU216CR1000,2013-09-11 13:07:00,
2013-09-11 06:12:00,62.7,56.7,0.00,West,281,3.1,8.2,81,0.00,,,0.00,WUHU216CR1000,2013-09-11 13:12:00,
2013-09-11 06:17:00,62.7,56.7,0.00,West,259,3.6,8.2,81,0.00,,,0.00,WUHU216CR1000,2013-09-11 13:17:00,
2013-09-11 06:22:00,62.7,56.7,0.00,West,259,3.6,8.2,81,0.00,,,0.00,WUHU216CR1000,2013-09-11 13:22:00,
2013-09-11 06:27:00,62.7,56.7,0.00,West,259,3.6,8.2,81,0.00,,,0.00,WUHU216CR1000,2013-09-11 13:27:00,
2013-09-11 06:32:00,62.7,56.7,0.00,WNW,298,2.9,8.2,81,0.00,,,0.00,WUHU216CR1000,2013-09-11 13:32:00,
2013-09-11 06:37:00,62.7,56.7,0.00,WNW,298,2.9,6.4,81,0.00,,,0.00,WUHU216CR1000,2013-09-11 13:37:00,
2013-09-11 06:42:00,62.7,56.7,0.00,WNW,298,2.9,6.4,81,0.00,,,0.00,WUHU216CR1000,2013-09-11 13:42:00,
2013-09-11 06:47:00,62.7,56.7,0.00,WNW,295,3.1,8.2,81,0.00,,,0.00,WUHU216CR1000,2013-09-11 13:47:00,
2013-09-11 06:52:00,62.7,56.7,0.00,WNW,295,3.1,8.2,81,0.00,,,0.00,WUHU216CR1000,2013-09-11 13:52:00,
2013-09-11 06:57:00,62.7,56.7,0.00,WNW,295,3.1,8.2,81,0.00,,,0.00,WUHU216CR1000,2013-09-11 13:57:00,
2013-09-11 07:02:00,62.7,56.8,0.00,West,281,3.0,8.2,81,0.00,,,0.00,WUHU216CR1000,2013-09-11 14:02:00,
2013-09-11 07:07:00,62.7,56.8,0.00,West,281,3.0,8.2,81,0.00,,,0.00,WUHU216CR1000,2013-09-11 14:07:00,
2013-09-11 07:12:00,62.7,56.8,0.00,West,281,3.0,8.2,81,0.00,,,0.00,WUHU216CR1000,2013-09-11 14:12:00,
2013-09-11 07:17:00,62.8,56.8,0.00,West,259,1.0,8.2,81,0.00,,,0.00,WUHU216CR1000,2013-09-11 14:17:00,
2013-09-11 07:22:00,62.8,56.8,0.00,West,259,1.0,4.6,81,0.00,,,0.00,WUHU216CR1000,2013-09-11 14:22:00,
2013-09-11 07:27:00,62.8,56.8,0.00,West,259,1.0,4.6,81,0.00,,,0.00,WUHU216CR1000,2013-09-11 14:27:00,
2013-09-11 07:32:00,62.9,56.9,0.00,WSW,238,2.9,6.4,81,0.00,,,0.00,WUHU216CR1000,2013-09-11 14:32:00,
2013-09-11 07:37:00,62.9,56.9,0.00,WSW,238,2.9,6.4,81,0.00,,,0.00,WUHU216CR1000,2013-09-11 14:37:00,
2013-09-11 07:42:00,62.9,56.9,0.00,WSW,238,2.9,6.4,81,0.00,,,0.00,WUHU216CR1000,2013-09-11 14:42:00,
2013-09-11 07:47:00,63.0,57.0,0.00,SW,233,2.7,6.4,81,0.00,,,0.00,WUHU216CR1000,2013-09-11 14:47:00,
2013-09-11 07:52:00,63.0,57.0,0.00,SW,233,2.7,6.4,81,0.00,,,0.00,WUHU216CR1000,2013-09-11 14:52:00,
2013-09-11 07:57:00,63.0,57.0,0.00,SW,233,2.7,6.4,81,0.00,,,0.00,WUHU216CR1000,2013-09-11 14:57:00,
2013-09-11 08:02:00,63.1,57.0,0.00,WSW,248,3.4,6.4,80,0.00,,,0.00,WUHU216CR1000,2013-09-11 15:02:00,
2013-09-11 08:07:00,63.1,57.0,0.00,WSW,248,3.4,6.4,80,0.00,,,0.00,WUHU216CR1000,2013-09-11 15:07:00,
2013-09-11 08:12:00,63.1,57.0,0.00,WSW,248,3.4,6.4,80,0.00,,,0.00,WUHU216CR1000,2013-09-11 15:12:00,
2013-09-11 08:17:00,63.3,56.9,0.00,WSW,245,3.4,6.4,80,0.00,,,0.00,WUHU216CR1000,2013-09-11 15:17:00,
2013-09-11 08:22:00,63.3,56.9,0.00,WSW,245,3.4,6.4,80,0.00,,,0.00,WUHU216CR1000,2013-09-11 15:22:00,
2013-09-11 08:27:00,63.3,56.9,0.00,WSW,245,3.4,6.4,80,0.00,,,0.00,WUHU216CR1000,2013-09-11 15:27:00,
2013-09-11 08:32:00,63.4,56.8,0.00,WSW,246,3.8,8.2,79,0.00,,,0.00,WUHU216CR1000,2013-09-11 15:32:00,
2013-09-11 08:37:00,63.4,56.8,0.00,WSW,246,3.8,8.2,79,0.00,,,0.00,WUHU216CR1000,2013-09-11 15:37:00,
2013-09-11 08:42:00,63.4,56.8,0.00,WSW,246,3.8,8.2,79,0.00,,,0.00,WUHU216CR1000,2013-09-11 15:42:00,
2013-09-11 08:47:00,63.6,56.6,0.00,WSW,243,4.4,8.2,78,0.00,,,0.00,WUHU216CR1000,2013-09-11 15:47:00,
2013-09-11 08:52:00,63.6,56.6,0.00,WSW,243,4.4,6.4,78,0.00,,,0.00,WUHU216CR1000,2013-09-11 15:52:00,
2013-09-11 08:57:00,63.6,56.6,0.00,WSW,243,4.4,6.4,78,0.00,,,0.00,WUHU216CR1000,2013-09-11 15:57:00,
2013-09-11 09:02:00,63.8,56.6,0.00,West,267,3.3,8.2,77,0.00,,,0.00,WUHU216CR1000,2013-09-11 16:02:00,
2013-09-11 09:07:00,63.8,56.6,0.00,West,267,3.3,8.2,77,0.00,,,0.00,WUHU216CR1000,2013-09-11 16:07:00,
2013-09-11 09:13:00,63.8,56.6,0.00,West,267,3.3,8.2,77,0.00,,,0.00,WUHU216CR1000,2013-09-11 16:13:00,
2013-09-11 09:18:00,64.0,56.7,0.00,West,280,3.2,8.2,77,0.00,,,0.00,WUHU216CR1000,2013-09-11 16:18:00,
2013-09-11 09:23:00,64.0,56.7,0.00,West,280,3.2,6.4,77,0.00,,,0.00,WUHU216CR1000,2013-09-11 16:23:00,
2013-09-11 09:28:00,64.0,56.7,0.00,West,280,3.2,6.4,77,0.00,,,0.00,WUHU216CR1000,2013-09-11 16:28:00,
2013-09-11 09:33:00,64.3,56.8,0.00,WSW,254,3.1,6.4,77,0.00,,,0.00,WUHU216CR1000,2013-09-11 16:33:00,
2013-09-11 09:38:00,64.3,56.8,0.00,WSW,254,3.1,6.4,77,0.00,,,0.00,WUHU216CR1000,2013-09-11 16:38:00,
2013-09-11 09:43:00,64.3,56.8,0.00,WSW,254,3.1,6.4,77,0.00,,,0.00,WUHU216CR1000,2013-09-11 16:43:00,
2013-09-11 09:48:00,64.5,56.9,0.00,West,259,3.1,6.4,76,0.00,,,0.00,WUHU216CR1000,2013-09-11 16:48:00,
2013-09-11 09:53:00,64.5,56.9,0.00,West,259,3.1,6.4,76,0.00,,,0.00,WUHU216CR1000,2013-09-11 16:53:00,
2013-09-11 09:58:00,64.5,56.9,0.00,West,259,3.1,6.4,76,0.00,,,0.00,WUHU216CR1000,2013-09-11 16:58:00,
2013-09-11 10:03:00,64.8,56.9,0.00,WSW,249,4.3,9.9,76,0.00,,,0.00,WUHU216CR1000,2013-09-11 17:03:00,
2013-09-11 10:08:00,64.8,56.9,0.00,WSW,249,4.3,9.9,76,0.00,,,0.00,WUHU216CR1000,2013-09-11 17:08:00,
2013-09-11 10:13:00,64.8,56.9,0.00,WSW,249,4.3,9.9,76,0.00,,,0.00,WUHU216CR1000,2013-09-11 17:13:00,
2013-09-11 10:18:00,64.9,56.8,0.00,SW,232,4.4,9.9,75,0.00,,,0.00,WUHU216CR1000,2013-09-11 17:18:00,
2013-09-11 10:23:00,64.9,56.8,0.00,SW,232,4.4,8.2,75,0.00,,,0.00,WUHU216CR1000,2013-09-11 17:23:00,
2013-09-11 10:28:00,64.9,56.8,0.00,SW,232,4.4,8.2,75,0.00,,,0.00,WUHU216CR1000,2013-09-11 17:28:00,
2013-09-11 10:33:00,65.5,57.0,0.00,WSW,246,4.7,8.2,74,0.00,,,0.00,WUHU216CR1000,2013-09-11 17:33:00,
2013-09-11 10:38:00,65.5,57.0,0.00,WSW,246,4.7,8.2,74,0.00,,,0.00,WUHU216CR1000,2013-09-11 17:38:00,
2013-09-11 10:43:00,65.5,57.0,0.00,WSW,246,4.7,8.2,74,0.00,,,0.00,WUHU216CR1000,2013-09-11 17:43:00,
2013-09-11 10:48:00,65.6,57.1,0.00,SW,235,4.9,9.9,74,0.00,,,0.00,WUHU216CR1000,2013-09-11 17:48:00,
2013-09-11 10:53:00,65.6,57.1,0.00,SW,235,4.9,9.9,74,0.00,,,0.00,WUHU216CR1000,2013-09-11 17:53:00,
2013-09-11 10:58:00,65.6,57.1,0.00,SW,235,4.9,9.9,74,0.00,,,0.00,WUHU216CR1000,2013-09-11 17:58:00,
2013-09-11 11:03:00,66.4,57.1,0.00,WSW,241,4.8,9.9,72,0.00,,,0.00,WUHU216CR1000,2013-09-11 18:03:00,
2013-09-11 11:08:00,66.4,57.1,0.00,WSW,241,4.8,9.9,72,0.00,,,0.00,WUHU216CR1000,2013-09-11 18:08:00,
2013-09-11 11:13:00,66.4,57.1,0.00,WSW,241,4.8,9.9,72,0.00,,,0.00,WUHU216CR1000,2013-09-11 18:13:00,
2013-09-11 11:18:00,66.8,57.1,0.00,WSW,241,5.7,11.7,71,0.00,,,0.00,WUHU216CR1000,2013-09-11 18:18:00,
2013-09-11 11:23:00,66.8,57.1,0.00,WSW,241,5.7,11.7,71,0.00,,,0.00,WUHU216CR1000,2013-09-11 18:23:00,
2013-09-11 11:28:00,66.8,57.1,0.00,WSW,241,5.7,11.7,71,0.00,,,0.00,WUHU216CR1000,2013-09-11 18:28:00,
2013-09-11 11:33:00,67.3,57.2,0.00,WSW,238,6.3,11.7,70,0.00,,,0.00,WUHU216CR1000,2013-09-11 18:33:00,
2013-09-11 11:38:00,67.3,57.2,0.00,WSW,238,6.3,9.9,70,0.00,,,0.00,WUHU216CR1000,2013-09-11 18:38:00,
2013-09-11 11:43:00,67.3,57.2,0.00,WSW,238,6.3,9.9,70,0.00,,,0.00,WUHU216CR1000,2013-09-11 18:43:00,
2013-09-11 11:48:00,67.8,57.1,0.00,WSW,246,5.3,9.9,69,0.00,,,0.00,WUHU216CR1000,2013-09-11 18:48:00,
2013-09-11 11:53:00,67.8,57.1,0.00,WSW,246,5.3,9.9,69,0.00,,,0.00,WUHU216CR1000,2013-09-11 18:53:00,
2013-09-11 11:58:00,67.8,57.1,0.00,WSW,246,5.3,9.9,69,0.00,,,0.00,WUHU216CR1000,2013-09-11 18:58:00,
2013-09-11 12:03:00,68.1,57.0,0.00,WSW,253,6.1,11.7,68,0.00,,,0.00,WUHU216CR1000,2013-09-11 19:03:00,
2013-09-11 12:08:00,68.1,57.0,0.00,WSW,253,6.1,11.7,68,0.00,,,0.00,WUHU216CR1000,2013-09-11 19:08:00,
2013-09-11 12:13:00,68.1,57.0,0.00,WSW,253,6.1,11.7,68,0.00,,,0.00,WUHU216CR1000,2013-09-11 19:13:00,
2013-09-11 12:18:00,68.6,57.0,0.00,WSW,251,6.3,11.7,67,0.00,,,0.00,WUHU216CR1000,2013-09-11 19:18:00,
2013-09-11 12:23:00,68.6,57.0,0.00,WSW,251,6.3,9.9,67,0.00,,,0.00,WUHU216CR1000,2013-09-11 19:23:00,
2013-09-11 12:28:00,68.6,57.0,0.00,WSW,251,6.3,9.9,67,0.00,,,0.00,WUHU216CR1000,2013-09-11 19:28:00,
2013-09-11 12:33:00,69.5,57.0,0.00,WSW,256,6.2,11.7,64,0.00,,,0.00,WUHU216CR1000,2013-09-11 19:33:00,
2013-09-11 12:38:00,69.5,57.0,0.00,WSW,256,6.2,11.7,64,0.00,,,0.00,WUHU216CR1000,2013-09-11 19:38:00,
2013-09-11 12:43:00,69.5,57.0,0.00,WSW,256,6.2,11.7,64,0.00,,,0.00,WUHU216CR1000,2013-09-11 19:43:00,
2013-09-11 12:48:00,70.1,57.1,0.00,WSW,250,6.5,11.7,63,0.00,,,0.00,WUHU216CR1000,2013-09-11 19:48:00,
2013-09-11 12:53:00,70.1,57.1,0.00,WSW,250,6.5,11.7,63,0.00,,,0.00,WUHU216CR1000,2013-09-11 19:53:00,
2013-09-11 12:58:00,70.1,57.1,0.00,WSW,250,6.5,11.7,63,0.00,,,0.00,WUHU216CR1000,2013-09-11 19:58:00,
2013-09-11 13:03:00,70.7,57.2,0.00,WSW,255,6.4,11.7,62,0.00,,,0.00,WUHU216CR1000,2013-09-11 20:03:00,
2013-09-11 13:08:00,70.7,57.2,0.00,WSW,255,6.4,11.7,62,0.00,,,0.00,WUHU216CR1000,2013-09-11 20:08:00,
2013-09-11 13:13:00,70.7,57.2,0.00,WSW,255,6.4,11.7,62,0.00,,,0.00,WUHU216CR1000,2013-09-11 20:13:00,
2013-09-11 13:18:00,72.1,57.4,0.00,WSW,257,5.9,11.7,60,0.00,,,0.00,WUHU216CR1000,2013-09-11 20:18:00,
2013-09-11 13:23:00,72.1,57.4,0.00,WSW,257,5.9,11.7,60,0.00,,,0.00,WUHU216CR1000,2013-09-11 20:23:00,
2013-09-11 13:28:00,72.1,57.4,0.00,WSW,257,5.9,11.7,60,0.00,,,0.00,WUHU216CR1000,2013-09-11 20:28:00,
2013-09-11 13:33:00,73.0,57.4,0.00,WSW,242,6.9,11.7,58,0.00,,,0.00,WUHU216CR1000,2013-09-11 20:33:00,
2013-09-11 13:38:00,73.0,57.4,0.00,WSW,242,6.9,11.7,58,0.00,,,0.00,WUHU216CR1000,2013-09-11 20:38:00,
2013-09-11 13:43:00,73.0,57.4,0.00,WSW,242,6.9,11.7,58,0.00,,,0.00,WUHU216CR1000,2013-09-11 20:43:00,
2013-09-11 13:48:00,73.2,57.4,0.00,WSW,249,6.4,15.3,58,0.00,,,0.00,WUHU216CR1000,2013-09-11 20:48:00,
2013-09-11 13:53:00,73.2,57.4,0.00,WSW,249,6.4,15.3,58,0.00,,,0.00,WUHU216CR1000,2013-09-11 20:53:00,
2013-09-11 13:58:00,73.2,57.4,0.00,WSW,249,6.4,15.3,58,0.00,,,0.00,WUHU216CR1000,2013-09-11 20:58:00,
2013-09-11 14:03:00,74.3,57.5,0.00,WSW,239,7.7,15.3,56,0.00,,,0.00,WUHU216CR1000,2013-09-11 21:03:00,
2013-09-11 14:08:00,74.3,57.5,0.00,WSW,239,7.7,15.3,56,0.00,,,0.00,WUHU216CR1000,2013-09-11 21:08:00,
2013-09-11 14:13:00,74.3,57.5,0.00,WSW,239,7.7,15.3,56,0.00,,,0.00,WUHU216CR1000,2013-09-11 21:13:00,
2013-09-11 14:18:00,74.3,57.5,0.00,WSW,242,8.8,15.3,56,0.00,,,0.00,WUHU216CR1000,2013-09-11 21:18:00,
2013-09-11 14:23:00,74.3,57.5,0.00,WSW,242,8.8,15.3,56,0.00,,,0.00,WUHU216CR1000,2013-09-11 21:23:00,
2013-09-11 14:28:00,74.3,57.5,0.00,WSW,242,8.8,15.3,56,0.00,,,0.00,WUHU216CR1000,2013-09-11 21:28:00,
2013-09-11 14:33:00,75.3,57.3,0.00,West,260,6.9,15.3,54,0.00,,,0.00,WUHU216CR1000,2013-09-11 21:33:00,
2013-09-11 14:38:00,75.3,57.3,0.00,West,260,6.9,13.5,54,0.00,,,0.00,WUHU216CR1000,2013-09-11 21:38:00,
2013-09-11 14:43:00,75.3,57.3,0.00,West,260,6.9,13.5,54,0.00,,,0.00,WUHU216CR1000,2013-09-11 21:43:00,
2013-09-11 14:48:00,76.3,57.3,0.00,WSW,258,7.1,13.5,52,0.00,,,0.00,WUHU216CR1000,2013-09-11 21:48:00,
2013-09-11 14:53:00,76.3,57.3,0.00,WSW,258,7.1,13.5,52,0.00,,,0.00,WUHU216CR1000,2013-09-11 21:53:00,
2013-09-11 14:58:00,76.3,57.3,0.00,WSW,258,7.1,13.5,52,0.00,,,0.00,WUHU216CR1000,2013-09-11 21:58:00,
2013-09-11 15:03:00,75.9,57.5,0.00,WSW,250,7.8,13.5,53,0.00,,,0.00,WUHU216CR1000,2013-09-11 22:03:00,
2013-09-11 15:08:00,75.9,57.5,0.00,WSW,250,7.8,13.5,53,0.00,,,0.00,WUHU216CR1000,2013-09-11 22:08:00,
2013-09-11 15:13:00,75.9,57.5,0.00,WSW,250,7.8,13.5,53,0.00,,,0.00,WUHU216CR1000,2013-09-11 22:13:00,
2013-09-11 15:18:00,75.5,57.4,0.00,WSW,251,9.1,17.1,53,0.00,,,0.00,WUHU216CR1000,2013-09-11 22:18:00,
2013-09-11 15:23:00,75.5,57.4,0.00,WSW,251,9.1,17.1,53,0.00,,,0.00,WUHU216CR1000,2013-09-11 22:23:00,
2013-09-11 15:28:00,75.5,57.4,0.00,WSW,251,9.1,17.1,53,0.00,,,0.00,WUHU216CR1000,2013-09-11 22:28:00,
2013-09-11 15:33:00,74.8,57.5,0.00,WSW,243,9.7,17.1,55,0.00,,,0.00,WUHU216CR1000,2013-09-11 22:33:00,
2013-09-11 15:38:00,74.8,57.5,0.00,WSW,243,9.7,17.1,55,0.00,,,0.00,WUHU216CR1000,2013-09-11 22:38:00,
2013-09-11 15:43:00,74.8,57.5,0.00,WSW,243,9.7,17.1,55,0.00,,,0.00,WUHU216CR1000,2013-09-11 22:43:00,
2013-09-11 15:48:00,74.0,57.4,0.00,WSW,248,9.5,17.1,56,0.00,,,0.00,WUHU216CR1000,2013-09-11 22:48:00,
2013-09-11 15:53:00,74.0,57.4,0.00,WSW,248,9.5,17.1,56,0.00,,,0.00,WUHU216CR1000,2013-09-11 22:53:00,
2013-09-11 15:58:00,74.0,57.4,0.00,WSW,248,9.5,17.1,56,0.00,,,0.00,WUHU216CR1000,2013-09-11 22:58:00,
2013-09-11 16:03:00,73.4,57.3,0.00,WSW,248,8.9,17.1,57,0.00,,,0.00,WUHU216CR1000,2013-09-11 23:03:00,
2013-09-11 16:08:00,73.4,57.3,0.00,WSW,248,8.9,15.3,57,0.00,,,0.00,WUHU216CR1000,2013-09-11 23:08:00,
2013-09-11 16:13:00,73.4,57.3,0.00,WSW,248,8.9,15.3,57,0.00,,,0.00,WUHU216CR1000,2013-09-11 23:13:00,
2013-09-11 16:18:00,73.7,57.4,0.00,WSW,247,10.1,18.9,57,0.00,,,0.00,WUHU216CR1000,2013-09-11 23:18:00,
2013-09-11 16:23:00,73.7,57.4,0.00,WSW,247,10.1,18.9,57,0.00,,,0.00,WUHU216CR1000,2013-09-11 23:23:00,
2013-09-11 16:28:00,73.7,57.4,0.00,WSW,247,10.1,18.9,57,0.00,,,0.00,WUHU216CR1000,2013-09-11 23:28:00,
2013-09-11 16:33:00,73.8,57.4,0.00,WSW,257,8.8,18.9,56,0.00,,,0.00,WUHU216CR1000,2013-09-11 23:33:00,
2013-09-11 16:38:00,73.8,57.4,0.00,WSW,257,8.8,15.3,56,0.00,,,0.00,WUHU216CR1000,2013-09-11 23:38:00,
2013-09-11 16:43:00,73.8,57.4,0.00,WSW,257,8.8,15.3,56,0.00,,,0.00,WUHU216CR1000,2013-09-11 23:43:00,
2013-09-11 16:48:00,74.1,57.6,0.00,WSW,247,9.5,15.3,56,0.00,,,0.00,WUHU216CR1000,2013-09-11 23:48:00,
2013-09-11 16:53:00,74.1,57.6,0.00,WSW,247,9.5,15.3,56,0.00,,,0.00,WUHU216CR1000,2013-09-11 23:53:00,
2013-09-11 16:58:00,74.1,57.6,0.00,WSW,247,9.5,15.3,56,0.00,,,0.00,WUHU216CR1000,2013-09-11 23:58:00,
2013-09-11 17:03:00,73.4,57.6,0.00,WSW,249,9.4,17.1,58,0.00,,,0.00,WUHU216CR1000,2013-09-12 00:03:00,
2013-09-11 17:08:00,73.4,57.6,0.00,WSW,249,9.4,17.1,58,0.00,,,0.00,WUHU216CR1000,2013-09-12 00:08:00,
2013-09-11 17:13:00,73.4,57.6,0.00,WSW,249,9.4,17.1,58,0.00,,,0.00,WUHU216CR1000,2013-09-12 00:13:00,
2013-09-11 17:18:00,73.3,57.7,0.00,WSW,243,9.3,17.1,58,0.00,,,0.00,WUHU216CR1000,2013-09-12 00:18:00,
2013-09-11 17:23:00,73.3,57.7,0.00,WSW,243,9.3,15.3,58,0.00,,,0.00,WUHU216CR1000,2013-09-12 00:23:00,
2013-09-11 17:28:00,73.3,57.7,0.00,WSW,243,9.3,15.3,58,0.00,,,0.00,WUHU216CR1000,2013-09-12 00:28:00,
2013-09-11 17:33:00,73.0,57.8,0.00,WSW,254,8.7,15.3,59,0.00,,,0.00,WUHU216CR1000,2013-09-12 00:33:00,
2013-09-11 17:38:00,73.0,57.8,0.00,WSW,254,8.7,15.3,59,0.00,,,0.00,WUHU216CR1000,2013-09-12 00:38:00,
2013-09-11 17:43:00,73.0,57.8,0.00,WSW,254,8.7,15.3,59,0.00,,,0.00,WUHU216CR1000,2013-09-12 00:43:00,
2013-09-11 17:48:00,71.4,57.8,0.00,WSW,244,10.4,17.1,62,0.00,,,0.00,WUHU216CR1000,2013-09-12 00:48:00,
2013-09-11 17:53:00,71.4,57.8,0.00,WSW,244,10.4,17.1,62,0.00,,,0.00,WUHU216CR1000,2013-09-12 00:53:00,
2013-09-11 17:58:00,71.4,57.8,0.00,WSW,244,10.4,17.1,62,0.00,,,0.00,WUHU216CR1000,2013-09-12 00:58:00,
2013-09-11 18:03:00,70.4,57.8,0.00,WSW,245,9.4,17.1,64,0.00,,,0.00,WUHU216CR1000,2013-09-12 01:03:00,
2013-09-11 18:08:00,70.4,57.8,0.00,WSW,245,9.4,17.1,64,0.00,,,0.00,WUHU216CR1000,2013-09-12 01:08:00,
2013-09-11 18:13:00,70.4,57.8,0.00,WSW,245,9.4,17.1,64,0.00,,,0.00,WUHU216CR1000,2013-09-12 01:13:00,
2013-09-11 18:18:00,69.1,57.7,0.00,WSW,251,8.8,18.9,67,0.00,,,0.00,WUHU216CR1000,2013-09-12 01:18:00,
2013-09-11 18:23:00,69.1,57.7,0.00,WSW,251,8.8,18.9,67,0.00,,,0.00,WUHU216CR1000,2013-09-12 01:23:00,
2013-09-11 18:28:00,69.1,57.7,0.00,WSW,251,8.8,18.9,67,0.00,,,0.00,WUHU216CR1000,2013-09-12 01:28:00,
2013-09-11 18:33:00,67.7,57.6,0.00,WSW,249,8.0,18.9,70,0.00,,,0.00,WUHU216CR1000,2013-09-12 01:33:00,
2013-09-11 18:38:00,67.7,57.6,0.00,WSW,249,8.0,15.3,70,0.00,,,0.00,WUHU216CR1000,2013-09-12 01:38:00,
2013-09-11 18:43:00,67.7,57.6,0.00,WSW,249,8.0,15.3,70,0.00,,,0.00,WUHU216CR1000,2013-09-12 01:43:00,
2013-09-11 18:48:00,66.6,57.4,0.00,WSW,250,7.5,15.3,72,0.00,,,0.00,WUHU216CR1000,2013-09-12 01:48:00,
2013-09-11 18:53:00,66.6,57.4,0.00,WSW,250,7.5,13.5,72,0.00,,,0.00,WUHU216CR1000,2013-09-12 01:53:00,
2013-09-11 18:58:00,66.6,57.4,0.00,WSW,250,7.5,13.5,72,0.00,,,0.00,WUHU216CR1000,2013-09-12 01:58:00,
2013-09-11 19:03:00,65.9,57.5,0.00,WSW,253,7.5,13.5,74,0.00,,,0.00,WUHU216CR1000,2013-09-12 02:03:00,
2013-09-11 19:08:00,65.9,57.5,0.00,WSW,253,7.5,13.5,74,0.00,,,0.00,WUHU216CR1000,2013-09-12 02:08:00,
2013-09-11 19:13:00,65.9,57.5,0.00,WSW,253,7.5,13.5,74,0.00,,,0.00,WUHU216CR1000,2013-09-12 02:13:00,
2013-09-11 19:18:00,65.1,57.5,0.00,West,263,7.7,15.3,76,0.00,,,0.00,WUHU216CR1000,2013-09-12 02:18:00,
2013-09-11 19:23:00,65.1,57.5,0.00,West,263,7.7,15.3,76,0.00,,,0.00,WUHU216CR1000,2013-09-12 02:23:00,
2013-09-11 19:28:00,65.1,57.5,0.00,West,263,7.7,15.3,76,0.00,,,0.00,WUHU216CR1000,2013-09-12 02:28:00,
2013-09-11 19:33:00,64.7,57.5,0.00,West,259,7.1,15.3,78,0.00,,,0.00,WUHU216CR1000,2013-09-12 02:33:00,
2013-09-11 19:38:00,64.7,57.5,0.00,West,259,7.1,15.3,78,0.00,,,0.00,WUHU216CR1000,2013-09-12 02:38:00,
2013-09-11 19:43:00,64.7,57.5,0.00,West,259,7.1,15.3,78,0.00,,,0.00,WUHU216CR1000,2013-09-12 02:43:00,
2013-09-11 19:48:00,64.4,57.5,0.00,WSW,255,6.0,15.3,78,0.00,,,0.00,WUHU216CR1000,2013-09-12 02:48:00,
2013-09-11 19:53:00,64.4,57.5,0.00,WSW,255,6.0,13.5,78,0.00,,,0.00,WUHU216CR1000,2013-09-12 02:53:00,
2013-09-11 19:58:00,64.4,57.5,0.00,WSW,255,6.0,13.5,78,0.00,,,0.00,WUHU216CR1000,2013-09-12 02:58:00,
2013-09-11 20:03:00,64.2,57.5,0.00,WSW,246,6.9,13.5,79,0.00,,,0.00,WUHU216CR1000,2013-09-12 03:03:00,
2013-09-11 20:08:00,64.2,57.5,0.00,WSW,246,6.9,13.5,79,0.00,,,0.00,WUHU216CR1000,2013-09-12 03:08:00,
2013-09-11 20:13:00,64.2,57.5,0.00,WSW,246,6.9,13.5,79,0.00,,,0.00,WUHU216CR1000,2013-09-12 03:13:00,
2013-09-11 20:18:00,64.3,57.7,0.00,WSW,252,5.2,13.5,79,0.00,,,0.00,WUHU216CR1000,2013-09-12 03:18:00,
2013-09-11 20:23:00,64.3,57.7,0.00,WSW,252,5.2,9.9,79,0.00,,,0.00,WUHU216CR1000,2013-09-12 03:23:00,
2013-09-11 20:28:00,64.3,57.7,0.00,WSW,252,5.2,9.9,79,0.00,,,0.00,WUHU216CR1000,2013-09-12 03:28:00,
2013-09-11 20:33:00,64.3,57.8,0.00,West,272,4.5,9.9,80,0.00,,,0.00,WUHU216CR1000,2013-09-12 03:33:00,
2013-09-11 20:38:00,64.3,57.8,0.00,West,272,4.5,9.9,80,0.00,,,0.00,WUHU216CR1000,2013-09-12 03:38:00,
2013-09-11 20:43:00,64.3,57.8,0.00,West,272,4.5,9.9,80,0.00,,,0.00,WUHU216CR1000,2013-09-12 03:43:00,
2013-09-11 20:48:00,64.3,58.0,0.00,WSW,243,5.6,11.7,80,0.00,,,0.00,WUHU216CR1000,2013-09-12 03:48:00,
2013-09-11 20:53:00,64.3,58.0,0.00,WSW,243,5.6,11.7,80,0.00,,,0.00,WUHU216CR1000,2013-09-12 03:53:00,
2013-09-11 20:58:00,64.3,58.0,0.00,WSW,243,5.6,11.7,80,0.00,,,0.00,WUHU216CR1000,2013-09-12 03:58:00,
2013-09-11 21:01:00,64.3,58.0,0.00,WSW,243,5.6,11.7,80,0.00,,,0.00,WUHU216CR1000,2013-09-12 04:01:00,
2013-09-11 21:06:00,64.2,58.1,0.00,WSW,249,5.9,11.7,81,0.00,,,0.00,WUHU216CR1000,2013-09-12 04:06:00,
2013-09-11 21:11:00,64.2,58.1,0.00,WSW,249,5.9,11.7,81,0.00,,,0.00,WUHU216CR1000,2013-09-12 04:11:00,
2013-09-11 21:16:00,64.1,58.2,0.00,WSW,246,5.7,11.7,81,0.00,,,0.00,WUHU216CR1000,2013-09-12 04:16:00,
2013-09-11 21:21:00,64.1,58.2,0.00,WSW,246,5.7,9.9,81,0.00,,,0.00,WUHU216CR1000,2013-09-12 04:21:00,
2013-09-11 21:26:00,64.1,58.2,0.00,WSW,246,5.7,9.9,81,0.00,,,0.00,WUHU216CR1000,2013-09-12 04:26:00,
2013-09-11 21:31:00,63.9,58.4,0.00,WSW,249,4.9,9.9,82,0.00,,,0.00,WUHU216CR1000,2013-09-12 04:31:00,
2013-09-11 21:36:00,63.9,58.4,0.00,WSW,249,4.9,8.2,82,0.00,,,0.00,WUHU216CR1000,2013-09-12 04:36:00,
2013-09-11 21:41:00,63.9,58.4,0.00,WSW,249,4.9,8.2,82,0.00,,,0.00,WUHU216CR1000,2013-09-12 04:41:00,
2013-09-11 21:46:00,63.7,58.4,0.00,WSW,249,5.0,9.9,83,0.00,,,0.00,WUHU216CR1000,2013-09-12 04:46:00,
2013-09-11 21:51:00,63.7,58.4,0.00,WSW,249,5.0,9.9,83,0.00,,,0.00,WUHU216CR1000,2013-09-12 04:51:00,
2013-09-11 21:56:00,63.7,58.4,0.00,WSW,249,5.0,9.9,83,0.00,,,0.00,WUHU216CR1000,2013-09-12 04:56:00,
2013-09-11 22:01:00,63.7,58.3,0.00,West,276,3.7,9.9,82,0.00,,,0.00,WUHU216CR1000,2013-09-12 05:01:00,
2013-09-11 22:06:00,63.7,58.3,0.00,West,276,3.7,6.4,82,0.00,,,0.00,WUHU216CR1000,2013-09-12 05:06:00,
2013-09-11 22:11:00,63.7,58.3,0.00,West,276,3.7,6.4,82,0.00,,,0.00,WUHU216CR1000,2013-09-12 05:11:00,
2013-09-11 22:16:00,63.7,58.3,0.00,WSW,257,3.5,6.4,83,0.00,,,0.00,WUHU216CR1000,2013-09-12 05:16:00,
2013-09-11 22:21:00,63.7,58.3,0.00,WSW,257,3.5,6.4,83,0.00,,,0.00,WUHU216CR1000,2013-09-12 05:21:00,
2013-09-11 22:26:00,63.7,58.3,0.00,WSW,257,3.5,6.4,83,0.00,,,0.00,WUHU216CR1000,2013-09-12 05:26:00,
2013-09-11 22:31:00,63.6,58.3,0.00,West,269,3.4,8.2,83,0.00,,,0.00,WUHU216CR1000,2013-09-12 05:31:00,
2013-09-11 22:36:00,63.6,58.3,0.00,West,269,3.4,8.2,83,0.00,,,0.00,WUHU216CR1000,2013-09-12 05:36:00,
2013-09-11 22:41:00,63.6,58.3,0.00,West,269,3.4,8.2,83,0.00,,,0.00,WUHU216CR1000,2013-09-12 05:41:00,
2013-09-11 22:46:00,63.5,58.2,0.00,West,261,3.7,8.2,83,0.00,,,0.00,WUHU216CR1000,2013-09-12 05:46:00,
2013-09-11 22:51:00,63.5,58.2,0.00,West,261,3.7,8.2,83,0.00,,,0.00,WUHU216CR1000,2013-09-12 05:51:00,
2013-09-11 22:56:00,63.5,58.2,0.00,West,261,3.7,8.2,83,0.00,,,0.00,WUHU216CR1000,2013-09-12 05:56:00,
2013-09-11 23:01:00,63.3,58.0,0.00,WSW,254,5.2,11.7,83,0.00,,,0.00,WUHU216CR1000,2013-09-12 06:01:00,
2013-09-11 23:06:00,63.3,58.0,0.00,WSW,254,5.2,11.7,83,0.00,,,0.00,WUHU216CR1000,2013-09-12 06:06:00,
2013-09-11 23:11:00,63.3,58.0,0.00,WSW,254,5.2,11.7,83,0.00,,,0.00,WUHU216CR1000,2013-09-12 06:11:00,
2013-09-11 23:16:00,63.1,58.1,0.00,WSW,258,4.1,11.7,84,0.00,,,0.00,WUHU216CR1000,2013-09-12 06:16:00,
2013-09-11 23:21:00,63.1,58.1,0.00,WSW,258,4.1,8.2,84,0.00,,,0.00,WUHU216CR1000,2013-09-12 06:21:00,
2013-09-11 23:26:00,63.1,58.1,0.00,WSW,258,4.1,8.2,84,0.00,,,0.00,WUHU216CR1000,2013-09-12 06:26:00,
2013-09-11 23:31:00,63.2,58.2,0.00,WSW,252,2.7,8.2,84,0.00,,,0.00,WUHU216CR1000,2013-09-12 06:31:00,
2013-09-11 23:36:00,63.2,58.2,0.00,WSW,252,2.7,6.4,84,0.00,,,0.00,WUHU216CR1000,2013-09-12 06:36:00,
2013-09-11 23:41:00,63.2,58.2,0.00,WSW,252,2.7,6.4,84,0.00,,,0.00,WUHU216CR1000,2013-09-12 06:41:00,
2013-09-11 23:46:00,63.2,58.2,0.00,WSW,252,3.1,6.4,84,0.00,,,0.00,WUHU216CR1000,2013-09-12 06:46:00,
2013-09-11 23:51:00,63.2,58.2,0.00,WSW,252,3.1,6.4,84,0.00,,,0.00,WUHU216CR1000,2013-09-12 06:51:00,
2013-09-11 23:56:00,63.2,58.2,0.00,WSW,252,3.1,6.4,84,0.00,,,0.00,WUHU216CR1000,2013-09-12 06:56:00,